[[{"header":{"parameterUnit":"m.s-1","parameterCategory":1,"la1":30.2991,"la2":30.254,"lo1":-89.0895,"lo2":-89.0444,"dy":0.0017,"dx":0.0017,"nx":28,"ny":28,"refTime":"2024-03-19T09:00:00:Z","depth":0,"parameterNumber":2,"parameterNumberName":"U-component_of_WINDS"},"data":[0,0,0,0,0,0,0,0,0,0,0,0,0,0,0,0,0,0,0,0,0,0,0,0,0,0,0,0,0,0,0,0,0,0,0,0,0,0,0,0,0,0,0,0,0,0,0,0,0,0,0,0,0,0,0,0,0,0,0.6803,0.6803,0,0.6843,0.6844,0.6844,0.6876,0.6877,0.6877,0.6877,0.6918,0.6919,0.692,0,0,0,0,0,0,0,0,0,0,0,0,0,0.6752,0.6753,0.6803,0.6803,0.6804,0.6843,0.6844,0.6844,0.6876,0.6877,0.6877,0.6878,0.6918,0.6919,0.692,0,0,0,0,0,0,0,0,0,0,0,0,0,0.6781,0.6753,0.6802,0.6824,0.6827,0.6843,0.6844,0.6845,0.6876,0.6877,0.6877,0.6878,0.6918,0.6919,0.692,0.6918,0,0,0.6924,0.6924,0,0,0,0,0,0,0,0,0.678,0.6783,0.6821,0.6823,0.6826,0.6855,0.6841,0.6869,0.6876,0.6857,0.6877,0.6878,0.6897,0.69,0.6906,0.692,0.6921,0.6924,0.6924,0.6925,0.6925,0,0,0,0,0,0,0,0.6778,0.6782,0.6819,0.6821,0.6824,0.6832,0.6837,0.6847,0.6874,0.6859,0.6862,0.6866,0.6898,0.6905,0.6908,0.6922,0.6924,0.6925,0.6925,0.6926,0.6936,0.6936,0,0,0,0,0,0,0.6772,0.678,0.6817,0.682,0.6803,0.6833,0.6838,0.6845,0.6874,0.6879,0.6866,0.6867,0.6903,0.6906,0.6909,0.6909,0.6925,0.6926,0.6927,0.6937,0.6936,0.6936,0,0,0,0,0,0,0.6771,0.6775,0.6816,0.6801,0.6806,0.6833,0.6841,0.6846,0.6853,0.6879,0.6884,0.6868,0.6903,0.6907,0.6916,0.6911,0.6927,0.6928,0.6937,0.6936,0.6936,0.6908,0,0,0,0,0,0,0.677,0.6775,0.6774,0.68,0.6807,0.6821,0.6841,0.6846,0.6855,0.6858,0.6882,0.6886,0.6904,0.6914,0.6917,0.6912,0.6929,0.6938,0.6937,0.6936,0.6909,0.6906,0.6903,0,0,0,0,0,0.6768,0.6764,0.6774,0.6778,0.6807,0.6821,0.6825,0.6845,0.6854,0.6854,0.6871,0.6886,0.6911,0.6914,0.6918,0.6914,0.6938,0.6937,0.6936,0.691,0.6907,0.6903,0,0,0,0,0,0,0.6736,0.6768,0.6779,0.6784,0.68,0.6827,0.6827,0.6841,0.6854,0.6856,0.6881,0.6886,0.6891,0.6904,0.6907,0.6914,0.6926,0.6926,0.6905,0.6902,0.6899,0.6896,0.693,0,0,0,0,0,0.673,0.6739,0.6766,0.6768,0.6775,0.68,0.6807,0.6821,0.6838,0.6845,0.6862,0.6878,0.689,0.6897,0.6909,0.6911,0.6917,0.691,0.6907,0.6905,0.6904,0.6907,0.6905,0.6932,0.6932,0.6932,0,0,0.6717,0.6735,0.6739,0.6762,0.6776,0.6785,0.6805,0.6813,0.682,0.6846,0.6855,0.6868,0.6888,0.6893,0.6896,0.6903,0.6898,0.6904,0.6902,0.6902,0.6906,0.6903,0.6901,0.6932,0.6932,0.6932,0,0,0.6698,0.6712,0.6716,0.673,0.675,0.6767,0.6768,0.6792,0.6802,0.6812,0.6832,0.684,0.6859,0.6873,0.6882,0.6868,0.6883,0.6872,0.6857,0.6859,0.6857,0.6855,0.685,0.6848,0.6871,0.6871,0.6871,0,0.6679,0.6693,0.6716,0.6723,0.6733,0.6757,0.6761,0.6773,0.6796,0.6802,0.681,0.6835,0.685,0.6859,0.6856,0.6862,0.6864,0.6869,0.6855,0.6854,0.6852,0.6848,0.6847,0.6869,0.687,0.687,0.687,0,0.6669,0.6678,0.6679,0.6701,0.6711,0.6716,0.674,0.6747,0.6761,0.6776,0.6786,0.6805,0.6821,0.6824,0.6838,0.6836,0.6839,0.6851,0.6864,0.6848,0.6845,0.6843,0.6867,0.6868,0.6868,0.6869,0,0,0.663,0.6666,0.6666,0.6677,0.6702,0.671,0.6717,0.6733,0.6739,0.6754,0.6761,0.6777,0.6788,0.6798,0.6814,0.6816,0.6804,0.6827,0.6828,0.6822,0.6803,0.6794,0.6792,0.6814,0.6814,0.6814,0.6802,0,0.6615,0.6629,0.665,0.6656,0.6666,0.669,0.6696,0.6712,0.6727,0.6737,0.6753,0.6764,0.6778,0.6785,0.6788,0.6805,0.6801,0.6806,0.682,0.682,0.6814,0.679,0.678,0.6768,0.68,0.68,0.68,0,0.6599,0.6614,0.6621,0.6647,0.6651,0.6656,0.6674,0.6683,0.6702,0.6713,0.6725,0.6742,0.675,0.6762,0.6774,0.6778,0.6785,0.6794,0.6794,0.6796,0.6809,0.6791,0.6764,0.6762,0.6798,0.6798,0.6798,0,0.657,0.6592,0.66,0.6608,0.6638,0.6641,0.6653,0.6673,0.6681,0.6696,0.6703,0.6718,0.6727,0.6738,0.6759,0.6766,0.6769,0.6783,0.6778,0.6778,0.6777,0.6777,0.6751,0.6782,0.6782,0.6782,0.6782,0,0.655,0.6554,0.6587,0.6592,0.6597,0.6621,0.6626,0.664,0.6658,0.6665,0.6687,0.6694,0.6721,0.6731,0.6748,0.6755,0.6759,0.6768,0.6772,0.6766,0.6765,0.677,0.6772,0.6782,0.6782,0.6782,0.6782,0,0.6519,0.6541,0.6551,0.6578,0.6585,0.6588,0.6612,0.6617,0.6634,0.6643,0.6647,0.6673,0.6686,0.6708,0.6727,0.6739,0.6743,0.675,0.6737,0.6739,0.6733,0.6733,0.671,0.6708,0.674,0.674,0.674,0,0.6505,0.6508,0.6537,0.6544,0.6556,0.6567,0.6576,0.66,0.6609,0.6631,0.6634,0.6649,0.6662,0.6682,0.6703,0.6718,0.6726,0.6717,0.6728,0.6722,0.6725,0.6725,0.6725,0.6714,0.6713,0.6713,0.6712,0,0.6478,0.6489,0.6501,0.6518,0.6529,0.6543,0.6559,0.6563,0.6591,0.66,0.6614,0.6624,0.6644,0.6659,0.6677,0.669,0.6706,0.6709,0.6708,0.6702,0.6694,0.6698,0.6729,0.6709,0.6709,0.671,0.671,0.671,0.6455,0.6459,0.648,0.6493,0.6508,0.6522,0.6528,0.6546,0.6558,0.6577,0.6591,0.6604,0.6623,0.6649,0.6661,0.6672,0.6679,0.6679,0.6678,0.6678,0.6675,0.6692,0.6675,0.6676,0.6676,0.6676,0.6676,0,0.6429,0.6443,0.6456,0.6477,0.6488,0.6502,0.652,0.6528,0.654,0.6557,0.657,0.6586,0.66,0.6622,0.6638,0.6643,0.665,0.6646,0.6646,0.6649,0.6668,0.6667,0.664,0.664,0.664,0.664,0.664,0.664,0.6416,0.6425,0.6438,0.6454,0.6469,0.6482,0.6491,0.6505,0.6518,0.6536,0.6548,0.6562,0.6582,0.6599,0.6614,0.662,0.6624,0.6618,0.6626,0.6644,0.6647,0.665,0.6649,0.6619,0.6619,0.6606,0.6606,0.6605]},{"header":{"parameterUnit":"m.s-1","parameterCategory":1,"la1":30.2991,"la2":30.254,"lo1":-89.0895,"lo2":-89.0444,"dy":0.0017,"dx":0.0017,"nx":28,"ny":28,"refTime":"2024-03-19T09:00:00:Z","depth":0,"parameterNumber":3,"parameterNumberName":"V-component_of_WINDS"},"data":[0,0,0,0,0,0,0,0,0,0,0,0,0,0,0,0,0,0,0,0,0,0,0,0,0,0,0,0,0,0,0,0,0,0,0,0,0,0,0,0,0,0,0,0,0,0,0,0,0,0,0,0,0,0,0,0,0,0,-1.3134,-1.3135,0,-1.3227,-1.3228,-1.3229,-1.3238,-1.3237,-1.3236,-1.3236,-1.333,-1.3333,-1.3337,0,0,0,0,0,0,0,0,0,0,0,0,0,-1.2966,-1.2969,-1.3134,-1.3135,-1.3137,-1.3227,-1.3228,-1.3229,-1.3239,-1.3237,-1.3236,-1.3235,-1.3329,-1.3333,-1.3337,0,0,0,0,0,0,0,0,0,0,0,0,0,-1.3047,-1.297,-1.3134,-1.3152,-1.3155,-1.3226,-1.3228,-1.323,-1.3239,-1.3237,-1.3236,-1.3235,-1.3328,-1.3333,-1.3338,-1.3398,0,0,-1.3353,-1.3355,0,0,0,0,0,0,0,0,-1.3042,-1.3053,-1.3148,-1.3151,-1.3154,-1.322,-1.3203,-1.3286,-1.3239,-1.3207,-1.3236,-1.3234,-1.3294,-1.3302,-1.3323,-1.3402,-1.3406,-1.3354,-1.3357,-1.3359,-1.336,0,0,0,0,0,0,0,-1.3037,-1.3049,-1.3171,-1.315,-1.3153,-1.3156,-1.3166,-1.3219,-1.3258,-1.321,-1.321,-1.3221,-1.3296,-1.3318,-1.3325,-1.3408,-1.3354,-1.3358,-1.3361,-1.3363,-1.3542,-1.3544,0,0,0,0,0,0,-1.3028,-1.3044,-1.3168,-1.3174,-1.3093,-1.316,-1.3171,-1.32,-1.3257,-1.3264,-1.3222,-1.3221,-1.331,-1.3319,-1.3328,-1.3404,-1.3359,-1.3364,-1.3367,-1.3541,-1.3543,-1.3544,0,0,0,0,0,0,-1.3024,-1.3039,-1.3164,-1.3109,-1.3125,-1.3164,-1.3197,-1.3203,-1.3225,-1.3267,-1.3274,-1.3238,-1.3309,-1.3321,-1.3381,-1.3407,-1.3366,-1.3371,-1.3539,-1.3541,-1.3544,-1.3554,0,0,0,0,0,0,-1.3019,-1.3037,-1.306,-1.311,-1.3128,-1.3215,-1.3198,-1.3205,-1.3233,-1.3233,-1.3283,-1.329,-1.3309,-1.3373,-1.3386,-1.3413,-1.3375,-1.3536,-1.354,-1.3543,-1.3551,-1.3556,-1.3561,0,0,0,0,0,-1.3013,-1.3059,-1.3061,-1.3076,-1.3158,-1.3216,-1.3227,-1.3248,-1.3235,-1.3259,-1.3286,-1.3288,-1.3402,-1.3379,-1.3393,-1.3423,-1.3535,-1.3539,-1.3542,-1.3549,-1.3555,-1.3561,0,0,0,0,0,0,-1.3011,-1.3066,-1.3069,-1.3133,-1.317,-1.3218,-1.3249,-1.3254,-1.3295,-1.3293,-1.3317,-1.3328,-1.3387,-1.3411,-1.3384,-1.3485,-1.3467,-1.3474,-1.3467,-1.3473,-1.3478,-1.3472,-1.3379,0,0,0,0,0,-1.3018,-1.3061,-1.3107,-1.3158,-1.3177,-1.3209,-1.3236,-1.3249,-1.3288,-1.3304,-1.3335,-1.3374,-1.3418,-1.3447,-1.349,-1.3554,-1.3566,-1.3582,-1.3586,-1.359,-1.3596,-1.3633,-1.3641,-1.3557,-1.3557,-1.3557,0,0,-1.3034,-1.3069,-1.3094,-1.3159,-1.3189,-1.3234,-1.3223,-1.3269,-1.3303,-1.3311,-1.337,-1.3394,-1.3438,-1.3501,-1.353,-1.3523,-1.3622,-1.3595,-1.3598,-1.3602,-1.3638,-1.3646,-1.3653,-1.356,-1.3559,-1.3559,0,0,-1.3084,-1.3114,-1.3161,-1.3192,-1.3238,-1.326,-1.3271,-1.3319,-1.3336,-1.3395,-1.3402,-1.3442,-1.3517,-1.3549,-1.3575,-1.3638,-1.3642,-1.3651,-1.3676,-1.3712,-1.3719,-1.3725,-1.3749,-1.3757,-1.3657,-1.3657,-1.3657,0,-1.3097,-1.3164,-1.3185,-1.3232,-1.3261,-1.327,-1.3318,-1.3347,-1.3405,-1.3425,-1.3415,-1.3511,-1.3542,-1.3613,-1.3628,-1.3648,-1.3663,-1.3646,-1.3716,-1.3722,-1.3728,-1.3751,-1.376,-1.3658,-1.3658,-1.3658,-1.3658,0,-1.3178,-1.3224,-1.3256,-1.3313,-1.3345,-1.3392,-1.3421,-1.3451,-1.3461,-1.3483,-1.3544,-1.3581,-1.3632,-1.365,-1.366,-1.3722,-1.3716,-1.3711,-1.3694,-1.3737,-1.3759,-1.3768,-1.3659,-1.3659,-1.3659,-1.3659,0,0,-1.323,-1.3298,-1.3309,-1.3336,-1.3388,-1.3424,-1.3472,-1.3522,-1.3548,-1.3588,-1.3629,-1.3693,-1.3689,-1.3719,-1.3733,-1.3764,-1.3813,-1.3755,-1.3757,-1.3766,-1.3886,-1.389,-1.39,-1.3815,-1.3817,-1.3818,-1.3882,0,-1.3287,-1.3373,-1.3394,-1.3468,-1.3511,-1.3521,-1.3563,-1.36,-1.3622,-1.3663,-1.3687,-1.3733,-1.3723,-1.3741,-1.3773,-1.38,-1.3838,-1.3796,-1.3855,-1.3857,-1.3845,-1.3911,-1.3916,-1.3975,-1.3891,-1.3892,-1.3894,0,-1.3365,-1.3408,-1.3486,-1.3533,-1.3552,-1.359,-1.3638,-1.3676,-1.3718,-1.3732,-1.3766,-1.3777,-1.3827,-1.3807,-1.3878,-1.3849,-1.3874,-1.3892,-1.3894,-1.3902,-1.3879,-1.3922,-1.3994,-1.4003,-1.3907,-1.3906,-1.3905,0,-1.3397,-1.3473,-1.353,-1.3552,-1.3609,-1.3635,-1.366,-1.37,-1.3729,-1.3772,-1.3791,-1.3838,-1.3865,-1.3901,-1.3925,-1.3908,-1.3994,-1.3976,-1.4008,-1.4008,-1.4027,-1.4026,-1.4105,-1.4041,-1.4041,-1.4041,-1.404,0,-1.346,-1.3508,-1.3546,-1.3581,-1.3635,-1.3658,-1.3711,-1.3736,-1.3772,-1.3813,-1.3824,-1.3861,-1.3889,-1.3931,-1.395,-1.4006,-1.4018,-1.4031,-1.4036,-1.4031,-1.403,-1.4049,-1.4046,-1.4043,-1.4042,-1.4042,-1.4042,0,-1.3505,-1.3532,-1.3595,-1.3644,-1.3657,-1.3695,-1.3736,-1.3771,-1.3794,-1.3845,-1.3858,-1.3894,-1.3944,-1.3971,-1.4033,-1.4045,-1.4109,-1.4111,-1.4095,-1.4098,-1.4129,-1.4126,-1.4225,-1.424,-1.4164,-1.4165,-1.4166,0,-1.3544,-1.3581,-1.3633,-1.3661,-1.3687,-1.3732,-1.3762,-1.3786,-1.3817,-1.3868,-1.3897,-1.3947,-1.3989,-1.4069,-1.41,-1.4148,-1.4152,-1.4183,-1.4159,-1.4154,-1.4154,-1.4152,-1.4157,-1.4188,-1.4189,-1.4189,-1.419,0,-1.361,-1.3622,-1.3665,-1.3713,-1.3749,-1.3788,-1.3827,-1.3849,-1.388,-1.3914,-1.3965,-1.3998,-1.4062,-1.4112,-1.4163,-1.4188,-1.4195,-1.4197,-1.4207,-1.4203,-1.4193,-1.4201,-1.4108,-1.4195,-1.4194,-1.4194,-1.4193,-1.4193,-1.3654,-1.3688,-1.3731,-1.3779,-1.381,-1.3846,-1.3882,-1.3909,-1.3952,-1.4007,-1.4018,-1.4073,-1.4115,-1.4183,-1.421,-1.4253,-1.4247,-1.4262,-1.4266,-1.4269,-1.4272,-1.4185,-1.4262,-1.4262,-1.4262,-1.4262,-1.4262,0,-1.3722,-1.375,-1.3794,-1.3848,-1.3886,-1.3888,-1.3931,-1.3963,-1.4011,-1.4049,-1.409,-1.415,-1.4199,-1.4235,-1.4285,-1.4313,-1.4317,-1.4325,-1.4324,-1.433,-1.4273,-1.426,-1.4321,-1.4321,-1.4321,-1.4321,-1.4321,-1.4321,-1.3762,-1.382,-1.3837,-1.3911,-1.3939,-1.3993,-1.4017,-1.4051,-1.4082,-1.4148,-1.4189,-1.4212,-1.4249,-1.4303,-1.4348,-1.4357,-1.4376,-1.4384,-1.4394,-1.434,-1.4334,-1.4328,-1.4316,-1.4388,-1.4388,-1.4447,-1.4448,-1.4448]}]]